NOZ354 EKCH-ESSA

Flight info

Callsign NOZ354
Flight time 0h 52m
Altitude 31000
Route KEMAX N851 ROXEN DCT MIKNA N851 PELUP Z226 NILUG
Aircraft B738/M-SDE2E3FGHIRWXY/LB1

Departure

Time 2026-04-23 17:53
Airport Copenhagen Kastrup Airport (EKCH)

Arrival

Time 2026-04-23 18:45
Airport Stockholm-Arlanda Airport (ESSA)
Time Latitude Longitude Altitude Speed Heading
2026-04-23 17:33 55.62785 12.64158 23 ft 0 kts 122°
2026-04-23 17:40 55.62791 12.64142 25 ft 3 kts 122°
2026-04-23 17:40 55.62801 12.64114 23 ft 3 kts 122°
2026-04-23 17:40 55.62810 12.64086 27 ft 3 kts 98°
2026-04-23 17:41 55.62810 12.64055 23 ft 3 kts 61°
2026-04-23 17:41 55.62796 12.64008 26 ft 3 kts 62°
2026-04-23 17:41 55.62785 12.63971 26 ft 2 kts 62°
2026-04-23 17:42 55.62783 12.63924 23 ft 2 kts 108°
2026-04-23 17:42 55.62787 12.63904 24 ft 0 kts 108°
2026-04-23 17:44 55.62787 12.63905 26 ft 1 kts 108°
2026-04-23 17:45 55.62770 12.63928 23 ft 4 kts 175°
2026-04-23 17:45 55.62640 12.63800 23 ft 12 kts 207°
2026-04-23 17:45 55.62549 12.63769 23 ft 17 kts 175°
2026-04-23 17:46 55.62351 12.64091 20 ft 16 kts 123°
2026-04-23 17:46 55.62305 12.64216 21 ft 10 kts 123°
2026-04-23 17:46 55.62271 12.64310 21 ft 9 kts 123°
2026-04-23 17:47 55.62204 12.64409 22 ft 17 kts 166°
2026-04-23 17:47 55.62075 12.64449 24 ft 18 kts 170°
2026-04-23 17:47 55.61844 12.64526 24 ft 16 kts 169°
2026-04-23 17:48 55.61806 12.64539 23 ft 3 kts 169°
2026-04-23 17:48 55.61782 12.64547 24 ft 8 kts 169°
2026-04-23 17:48 55.61701 12.64561 23 ft 13 kts 183°
2026-04-23 17:48 55.61588 12.64463 23 ft 25 kts 214°
2026-04-23 17:49 55.61444 12.64295 24 ft 24 kts 213°
2026-04-23 17:49 55.61306 12.64135 25 ft 23 kts 213°
2026-04-23 17:49 55.61173 12.63987 25 ft 22 kts 213°
2026-04-23 17:49 55.61046 12.63842 25 ft 21 kts 213°
2026-04-23 17:50 55.60926 12.63703 25 ft 20 kts 213°
2026-04-23 17:50 55.60768 12.63639 25 ft 11 kts 133°
2026-04-23 17:50 55.60742 12.63691 23 ft 0 kts 130°
2026-04-23 17:51 55.60726 12.63723 26 ft 13 kts 130°
2026-04-23 17:51 55.60702 12.63904 26 ft 8 kts 45°
2026-04-23 17:52 55.60783 12.64029 27 ft 35 kts 41°
2026-04-23 17:52 55.61809 12.65603 39 ft 152 kts 39°
2026-04-23 17:52 55.62643 12.66857 597 ft 157 kts 39°
2026-04-23 17:53 55.64424 12.69647 1865 ft 189 kts 38°
2026-04-23 17:53 55.65449 12.71253 2448 ft 203 kts 36°
2026-04-23 17:53 55.66569 12.72933 2995 ft 219 kts 34°
2026-04-23 17:54 55.67782 12.74725 3688 ft 233 kts 35°
2026-04-23 17:54 55.69074 12.76636 4356 ft 251 kts 35°
2026-04-23 17:54 55.71821 12.80749 6167 ft 262 kts 35°
2026-04-23 17:55 55.74630 12.84971 8036 ft 268 kts 35°
2026-04-23 17:55 55.76040 12.87156 8955 ft 271 kts 36°
2026-04-23 17:55 55.77454 12.89395 9901 ft 274 kts 36°
2026-04-23 17:56 55.78899 12.91686 10539 ft 286 kts 36°
2026-04-23 17:56 55.82037 12.96610 11410 ft 320 kts 36°
2026-04-23 17:56 55.83746 12.99299 11889 ft 334 kts 36°
2026-04-23 17:57 55.85500 13.02078 12617 ft 340 kts 37°
2026-04-23 17:57 55.87286 13.04913 13388 ft 345 kts 37°
2026-04-23 17:57 55.90912 13.10661 14911 ft 352 kts 37°
2026-04-23 17:58 55.92746 13.13570 15672 ft 355 kts 37°
2026-04-23 17:58 55.94599 13.16510 16429 ft 358 kts 37°
2026-04-23 17:58 55.96468 13.19483 17137 ft 362 kts 37°
2026-04-23 17:58 55.98356 13.22489 17843 ft 365 kts 37°
2026-04-23 17:59 56.00265 13.25535 18528 ft 369 kts 37°
2026-04-23 17:59 56.02188 13.28607 19123 ft 373 kts 37°
2026-04-23 17:59 56.04134 13.31721 19726 ft 377 kts 37°
2026-04-23 17:59 56.06100 13.34869 20319 ft 381 kts 37°
2026-04-23 18:00 56.08085 13.38056 20895 ft 385 kts 37°
2026-04-23 18:00 56.10063 13.41238 21462 ft 389 kts 37°
2026-04-23 18:00 56.12084 13.44481 22039 ft 392 kts 37°
2026-04-23 18:00 56.14158 13.47688 22611 ft 395 kts 35°
2026-04-23 18:01 56.16286 13.50831 23152 ft 398 kts 34°
2026-04-23 18:01 56.18453 13.53978 23676 ft 402 kts 34°
2026-04-23 18:01 56.20630 13.57183 24114 ft 405 kts 35°
2026-04-23 18:01 56.22802 13.60443 24565 ft 408 kts 36°
2026-04-23 18:02 56.24982 13.63747 25013 ft 411 kts 36°
2026-04-23 18:02 56.27175 13.67067 25450 ft 413 kts 35°
2026-04-23 18:02 56.29387 13.70398 25885 ft 415 kts 35°
2026-04-23 18:02 56.31609 13.73738 26290 ft 417 kts 35°
2026-04-23 18:03 56.33843 13.77101 26677 ft 419 kts 35°
2026-04-23 18:03 56.36086 13.80493 27117 ft 421 kts 35°
2026-04-23 18:03 56.38328 13.83895 27524 ft 422 kts 35°
2026-04-23 18:03 56.40581 13.87317 27891 ft 424 kts 35°
2026-04-23 18:04 56.42843 13.90756 28241 ft 426 kts 35°
2026-04-23 18:04 56.45085 13.94167 28583 ft 428 kts 35°
2026-04-23 18:04 56.47356 13.97629 29083 ft 426 kts 35°
2026-04-23 18:04 56.49617 14.01086 29601 ft 424 kts 35°
2026-04-23 18:05 56.51864 14.04527 30092 ft 423 kts 35°
2026-04-23 18:05 56.54116 14.07976 30426 ft 423 kts 35°
2026-04-23 18:05 56.56352 14.11405 30866 ft 421 kts 35°
2026-04-23 18:05 56.58589 14.14841 31060 ft 425 kts 35°
2026-04-23 18:06 56.60852 14.18321 31076 ft 427 kts 35°
2026-04-23 18:06 56.65345 14.25266 31089 ft 420 kts 35°
2026-04-23 18:07 56.69795 14.32153 31088 ft 419 kts 35°
2026-04-23 18:07 56.74221 14.39024 31070 ft 418 kts 35°
2026-04-23 18:08 56.77900 14.44756 31062 ft 418 kts 35°
2026-04-23 18:08 56.83032 14.52780 31076 ft 416 kts 35°
2026-04-23 18:09 56.87390 14.59618 31067 ft 413 kts 35°
2026-04-23 18:09 56.91756 14.66478 31062 ft 414 kts 35°
2026-04-23 18:10 56.96126 14.73380 31084 ft 414 kts 35°
2026-04-23 18:10 57.00490 14.80291 31090 ft 414 kts 35°
2026-04-23 18:11 57.04847 14.87211 31105 ft 414 kts 36°
2026-04-23 18:11 57.09171 14.94107 31114 ft 411 kts 35°
2026-04-23 18:12 57.13488 15.01005 31088 ft 411 kts 35°
2026-04-23 18:12 57.17809 15.07936 31091 ft 411 kts 35°
2026-04-23 18:13 57.22121 15.14874 31086 ft 411 kts 35°
2026-04-23 18:13 57.26426 15.21823 31093 ft 411 kts 35°
2026-04-23 18:14 57.30730 15.28796 31097 ft 410 kts 36°
2026-04-23 18:14 57.34991 15.35719 31086 ft 410 kts 36°
2026-04-23 18:15 57.39279 15.42707 31087 ft 410 kts 36°
2026-04-23 18:15 57.43568 15.49721 31074 ft 411 kts 36°
2026-04-23 18:16 57.47843 15.56736 31084 ft 410 kts 36°
2026-04-23 18:16 57.52124 15.63782 31095 ft 410 kts 36°
2026-04-23 18:17 57.58513 15.74341 31076 ft 409 kts 36°
2026-04-23 18:17 57.62741 15.81355 31074 ft 409 kts 36°
2026-04-23 18:18 57.66993 15.88437 31070 ft 409 kts 36°
2026-04-23 18:18 57.71227 15.95511 31074 ft 405 kts 36°
2026-04-23 18:19 57.75433 16.02556 31070 ft 407 kts 36°
2026-04-23 18:19 57.79654 16.09650 31063 ft 407 kts 36°
2026-04-23 18:20 57.83862 16.16753 31064 ft 407 kts 36°
2026-04-23 18:20 57.88068 16.23869 31061 ft 407 kts 37°
2026-04-23 18:21 57.92278 16.31018 31057 ft 407 kts 37°
2026-04-23 18:21 57.96480 16.38176 31056 ft 407 kts 37°
2026-04-23 18:22 58.00670 16.45337 31061 ft 405 kts 37°
2026-04-23 18:22 58.04816 16.52448 31056 ft 406 kts 37°
2026-04-23 18:23 58.11087 16.63243 31048 ft 406 kts 37°
2026-04-23 18:24 58.17340 16.74066 31037 ft 406 kts 37°
2026-04-23 18:25 58.23590 16.84935 31042 ft 406 kts 37°
2026-04-23 18:25 58.25674 16.88570 30483 ft 407 kts 37°
2026-04-23 18:25 58.27755 16.92208 29976 ft 405 kts 38°
2026-04-23 18:25 58.29823 16.95832 29444 ft 403 kts 37°
2026-04-23 18:26 58.31876 16.99436 28921 ft 400 kts 37°
2026-04-23 18:26 58.33910 17.03010 28412 ft 396 kts 37°
2026-04-23 18:26 58.35922 17.06550 27911 ft 393 kts 37°
2026-04-23 18:26 58.37927 17.10080 27407 ft 391 kts 37°
2026-04-23 18:27 58.39919 17.13595 26897 ft 389 kts 37°
2026-04-23 18:27 58.41869 17.17042 26405 ft 387 kts 37°
2026-04-23 18:27 58.43839 17.20530 25905 ft 385 kts 37°
2026-04-23 18:27 58.45802 17.24012 25393 ft 384 kts 37°
2026-04-23 18:28 58.47758 17.27486 24876 ft 384 kts 37°
2026-04-23 18:28 58.49713 17.30965 24356 ft 383 kts 37°
2026-04-23 18:28 58.51657 17.34428 23838 ft 382 kts 37°
2026-04-23 18:28 58.53604 17.37902 23263 ft 382 kts 38°
2026-04-23 18:29 58.55539 17.41363 22695 ft 380 kts 38°
2026-04-23 18:29 58.56843 17.43699 22340 ft 379 kts 38°
2026-04-23 18:29 58.58736 17.47096 21827 ft 376 kts 38°
2026-04-23 18:29 58.60641 17.50515 21282 ft 375 kts 38°
2026-04-23 18:30 58.62541 17.53928 20752 ft 373 kts 38°
2026-04-23 18:30 58.64432 17.57333 20216 ft 372 kts 38°
2026-04-23 18:30 58.66315 17.60727 19674 ft 371 kts 38°
2026-04-23 18:30 58.68191 17.64118 19144 ft 370 kts 38°
2026-04-23 18:31 58.70065 17.67508 18591 ft 369 kts 38°
2026-04-23 18:31 58.71933 17.70893 18006 ft 369 kts 38°
2026-04-23 18:31 58.73798 17.74277 17412 ft 368 kts 38°
2026-04-23 18:31 58.75653 17.77651 16850 ft 366 kts 39°
2026-04-23 18:32 58.77495 17.81011 16289 ft 364 kts 39°
2026-04-23 18:32 58.79332 17.84361 15728 ft 363 kts 39°
2026-04-23 18:32 58.81189 17.87643 15161 ft 359 kts 33°
2026-04-23 18:32 58.83306 17.90060 14778 ft 348 kts 22°
2026-04-23 18:33 58.85449 17.92102 14523 ft 339 kts 22°
2026-04-23 18:33 58.87540 17.94092 14248 ft 331 kts 22°
2026-04-23 18:33 58.89584 17.96025 13988 ft 323 kts 22°
2026-04-23 18:33 58.91581 17.97907 13723 ft 316 kts 22°
2026-04-23 18:34 58.93556 17.99417 13441 ft 303 kts
2026-04-23 18:34 58.95617 17.99704 13227 ft 293 kts 359°
2026-04-23 18:34 58.97641 17.99709 13002 ft 289 kts 358°
2026-04-23 18:34 58.99646 17.99676 12807 ft 287 kts 358°
2026-04-23 18:35 59.01635 17.99637 12619 ft 285 kts 358°
2026-04-23 18:35 59.03613 17.99595 12455 ft 283 kts 358°
2026-04-23 18:35 59.05568 17.99556 12315 ft 279 kts 358°
2026-04-23 18:35 59.07527 17.99517 12221 ft 288 kts 358°
2026-04-23 18:36 59.09576 17.99468 12170 ft 297 kts 358°
2026-04-23 18:36 59.11628 17.99420 12165 ft 292 kts 358°
2026-04-23 18:36 59.13647 17.99373 12091 ft 288 kts 358°
2026-04-23 18:36 59.15644 17.99324 11643 ft 287 kts 358°
2026-04-23 18:37 59.17634 17.99267 11168 ft 285 kts 356°
2026-04-23 18:37 59.19582 17.98668 10713 ft 283 kts 345°
2026-04-23 18:37 59.21470 17.97596 10261 ft 282 kts 343°
2026-04-23 18:37 59.23340 17.96452 9854 ft 279 kts 343°
2026-04-23 18:38 59.25186 17.95302 9207 ft 277 kts 342°
2026-04-23 18:38 59.26957 17.94206 8910 ft 263 kts 342°
2026-04-23 18:38 59.28675 17.93152 8467 ft 255 kts 342°
2026-04-23 18:38 59.30355 17.92128 7933 ft 251 kts 342°
2026-04-23 18:39 59.32018 17.91133 7403 ft 248 kts 342°
2026-04-23 18:39 59.33665 17.90166 6882 ft 246 kts 342°
2026-04-23 18:39 59.35297 17.89221 6370 ft 243 kts 342°
2026-04-23 18:39 59.36914 17.88297 5807 ft 241 kts 342°
2026-04-23 18:40 59.38522 17.87384 5246 ft 240 kts 343°
2026-04-23 18:40 59.40156 17.86801 4671 ft 241 kts
2026-04-23 18:40 59.41784 17.87432 4358 ft 238 kts 10°
2026-04-23 18:40 59.43418 17.88125 4021 ft 241 kts
2026-04-23 18:41 59.45068 17.88737 3691 ft 242 kts
2026-04-23 18:41 59.46724 17.89329 3358 ft 242 kts
2026-04-23 18:41 59.48340 17.89909 3047 ft 227 kts
2026-04-23 18:41 59.49869 17.90460 2727 ft 219 kts
2026-04-23 18:42 59.51340 17.90989 2408 ft 210 kts
2026-04-23 18:42 59.52740 17.91494 2138 ft 198 kts
2026-04-23 18:42 59.54024 17.91958 1855 ft 177 kts
2026-04-23 18:42 59.55191 17.92381 1625 ft 165 kts
2026-04-23 18:43 59.56285 17.92784 1425 ft 150 kts
2026-04-23 18:43 59.57292 17.93141 1187 ft 148 kts
2026-04-23 18:43 59.58297 17.93501 974 ft 144 kts
2026-04-23 18:43 59.59274 17.93863 815 ft 145 kts
2026-04-23 18:44 59.60259 17.94215 639 ft 142 kts
2026-04-23 18:44 59.61238 17.94565 421 ft 143 kts
2026-04-23 18:44 59.62210 17.94906 266 ft 140 kts
2026-04-23 18:44 59.63157 17.95281 127 ft 131 kts
2026-04-23 18:45 59.63885 17.95528 111 ft 83 kts 10°
2026-04-23 18:45 59.64299 17.95671 111 ft 34 kts
2026-04-23 18:45 59.64505 17.95680 107 ft 29 kts 349°
2026-04-23 18:45 59.64644 17.95589 107 ft 17 kts 340°
2026-04-23 18:46 59.64655 17.95581 106 ft 0 kts 340°
2026-04-23 18:46 59.64673 17.95564 105 ft 7 kts 326°
2026-04-23 18:46 59.64693 17.95467 104 ft 10 kts 261°
2026-04-23 18:46 59.64644 17.95391 104 ft 10 kts 202°
2026-04-23 18:47 59.64580 17.95315 104 ft 11 kts 225°
2026-04-23 18:47 59.64530 17.95168 102 ft 15 kts 238°
2026-04-23 18:47 59.64462 17.94953 103 ft 25 kts 238°
2026-04-23 18:47 59.64361 17.94634 102 ft 27 kts 238°
2026-04-23 18:48 59.64265 17.94331 102 ft 25 kts 238°
2026-04-23 18:48 59.64177 17.94059 104 ft 22 kts 237°
2026-04-23 18:48 59.64104 17.93834 110 ft 18 kts 238°
2026-04-23 18:48 59.64044 17.93647 109 ft 15 kts 238°
2026-04-23 18:49 59.63996 17.93471 110 ft 15 kts 251°
2026-04-23 18:49 59.64006 17.93235 108 ft 20 kts 293°
2026-04-23 18:49 59.64075 17.92975 111 ft 23 kts 298°
2026-04-23 18:49 59.64149 17.92690 109 ft 21 kts 296°
2026-04-23 18:50 59.64192 17.92528 114 ft 17 kts 297°
2026-04-23 18:50 59.64209 17.92464 115 ft 0 kts 296°
2026-04-23 18:50 59.64209 17.92463 115 ft 1 kts 296°
2026-04-23 18:51 59.64226 17.92395 115 ft 5 kts 296°
2026-04-23 18:51 59.64238 17.92346 117 ft 4 kts 296°
2026-04-23 18:51 59.64263 17.92250 115 ft 17 kts 296°
2026-04-23 18:51 59.64305 17.92089 114 ft 9 kts 309°
2026-04-23 18:52 59.64355 17.91949 112 ft 14 kts 322°
2026-04-23 18:52 59.64449 17.91945 111 ft 15 kts 10°
2026-04-23 18:52 59.64571 17.91990 109 ft 20 kts 11°
2026-04-23 18:52 59.64733 17.92048 107 ft 27 kts 10°
2026-04-23 18:53 59.64919 17.92113 106 ft 27 kts 10°
2026-04-23 18:53 59.65097 17.92179 106 ft 25 kts 11°
2026-04-23 18:53 59.65239 17.92231 106 ft 18 kts 10°
2026-04-23 18:53 59.65304 17.92310 107 ft 9 kts 89°
2026-04-23 18:54 59.65284 17.92449 109 ft 18 kts 108°
2026-04-23 18:54 59.65244 17.92683 111 ft 18 kts 109°
2026-04-23 18:54 59.65211 17.92855 110 ft 10 kts 119°
2026-04-23 18:54 59.65168 17.92921 109 ft 7 kts 186°
2026-04-23 18:55 59.65136 17.92893 111 ft 1 kts 206°
2026-04-23 18:55 59.65135 17.92893 111 ft 0 kts 206°